OK1TOM-6 Weather Reports


Display with metric or nautical units.
time (UTC)temp
F
wind
direction
speed
MPH
gust
MPH
rain 1hr
in
rain 24hr
in
rain mn
in
humidity
%
barometer
mb
20260504200550 59 135 0.0 0.0 0.00 0.00 0.00 65 1015.2
20260504195547 58 135 0.0 0.0 0.00 0.00 0.00 64 1015.2
20260504194543 58 135 0.0 0.0 0.00 0.00 0.00 66 1015.2
20260504193540 58 135 0.0 0.0 0.00 0.00 0.00 66 1015.3
20260504192536 59 135 0.0 0.0 0.00 0.00 0.00 63 1015.3
20260504191533 59 135 0.0 0.0 0.00 0.00 0.00 66 1015.4
20260504190529 60 135 0.0 0.0 0.00 0.00 0.00 61 1015.3
20260504185526 60 135 0.0 0.0 0.00 0.00 0.00 61 1015.3
20260504184522 61 135 0.0 0.0 0.00 0.00 0.00 60 1015.2
20260504183519 61 135 0.0 0.0 0.00 0.00 0.00 60 1015.1
20260504182516 62 135 0.0 0.0 0.00 0.00 0.00 57 1015.1
20260504181613 62 135 0.0 2.0 0.00 0.00 0.00 55 1015.1
20260504180609 63 135 0.0 0.0 0.00 0.00 0.00 56 1015.0
20260504175606 64 135 0.0 0.0 0.00 0.00 0.00 56 1015.0
20260504174602 64 135 0.0 0.0 0.00 0.00 0.00 54 1015.0
20260504173559 65 135 0.0 0.0 0.00 0.00 0.00 53 1014.9
20260504172555 66 135 0.0 0.0 0.00 0.00 0.00 48 1014.9
20260504171552 67 135 0.0 0.0 0.00 0.00 0.00 44 1014.9
20260504170549 68 135 0.0 0.0 0.00 0.00 0.00 42 1015.0
20260504150607 69 158 0.0 0.0 0.00 0.00 0.00 39 1015.6
20260504140547 70 158 0.0 2.0 0.00 0.00 0.00 37 1015.8
20260504130527 71 147 2.0 6.0 0.00 0.00 0.00 37 1016.2
20260504110546 69 113 1.0 4.0 0.00 0.00 0.00 38 1016.8
20260504100525 69 107 1.0 4.0 0.00 0.00 0.00 40 1017.3
20260504081548 64 0 0.0 2.0 0.00 0.00 0.00 49 1017.8
20260504080544 63 338 0.0 0.0 0.00 0.00 0.00 53 1017.8
20260504050542 56 270 0.0 2.0 0.00 0.00 0.00 60 1017.2
20260504045539 57 158 0.0 2.0 0.00 0.00 0.00 59 1017.0
20260504044535 57 191 0.0 2.0 0.00 0.00 0.00 60 1016.9
20260504043532 57 158 1.0 4.0 0.00 0.00 0.00 59 1016.8
20260504042529 57 158 0.0 0.0 0.00 0.00 0.00 59 1016.5
20260504041525 57 158 0.0 2.0 0.00 0.00 0.00 59 1016.6
20260504040522 57 142 0.0 2.0 0.00 0.00 0.00 60 1016.7
20260504035518 55 90 0.0 2.0 0.00 0.00 0.00 66 1016.7
20260504034515 56 90 0.0 0.0 0.00 0.00 0.00 64 1016.7
20260504033612 56 90 0.0 2.0 0.00 0.00 0.00 62 1016.8
20260504032608 54 90 0.0 0.0 0.00 0.00 0.00 68 1016.7
20260504031605 55 90 0.0 0.0 0.00 0.00 0.00 67 1016.6
20260504030601 55 90 0.0 0.0 0.00 0.00 0.00 68 1016.6
20260504025558 55 154 1.0 4.0 0.00 0.00 0.00 63 1016.5
20260504024555 54 180 0.0 0.0 0.00 0.00 0.00 70 1016.2
20260504023551 55 180 0.0 0.0 0.00 0.00 0.00 68 1016.5
20260504022548 55 180 0.0 0.0 0.00 0.00 0.00 65 1016.5
20260504021544 55 180 0.0 0.0 0.00 0.00 0.00 65 1016.5
20260504020541 55 180 0.0 0.0 0.00 0.00 0.00 66 1016.2
20260504015538 55 180 0.0 0.0 0.00 0.00 0.00 67 1016.1
20260504014534 56 180 0.0 0.0 0.00 0.00 0.00 64 1016.3
20260504013531 56 180 0.0 0.0 0.00 0.00 0.00 63 1016.4
20260504012527 56 180 0.0 0.0 0.00 0.00 0.00 63 1016.3
20260504011524 56 180 0.0 0.0 0.00 0.00 0.00 63 1016.3
20260504010520 56 180 0.0 0.0 0.00 0.00 0.00 63 1016.4
20260504005517 55 180 0.0 0.0 0.00 0.00 0.00 63 1016.5
20260504004614 56 180 0.0 0.0 0.00 0.00 0.00 62 1016.5
20260504003610 58 180 0.0 0.0 0.00 0.00 0.00 59 1016.7
20260504002607 58 180 0.0 2.0 0.00 0.00 0.00 54 1016.7
20260504001603 57 180 0.0 0.0 0.00 0.00 0.00 57 1016.7
20260504000600 54 180 0.0 0.0 0.00 0.00 0.00 66 1016.6
20260503235557 54 180 0.0 0.0 0.00 0.00 0.00 68 1016.6
20260503234553 54 180 0.0 0.0 0.00 0.00 0.00 68 1016.5
20260503233550 54 180 0.0 0.0 0.00 0.00 0.00 67 1016.4
20260503232547 54 180 0.0 0.0 0.00 0.00 0.00 66 1016.3
20260503231543 55 180 0.0 0.0 0.00 0.00 0.00 65 1016.3
20260503230540 54 180 0.0 0.0 0.00 0.00 0.00 67 1016.2
20260503225536 53 180 0.0 0.0 0.00 0.00 0.00 68 1016.2
20260503224533 54 180 0.0 0.0 0.00 0.00 0.00 67 1016.2
20260503223529 54 180 0.0 0.0 0.00 0.00 0.00 66 1016.2
20260503222526 54 180 0.0 0.0 0.00 0.00 0.00 66 1016.0
20260503221522 55 180 0.0 0.0 0.00 0.00 0.00 64 1016.0
20260503220519 55 180 0.0 0.0 0.00 0.00 0.00 62 1015.9
20260503215516 55 180 0.0 0.0 0.00 0.00 0.00 62 1015.9
20260503214612 54 180 0.0 0.0 0.00 0.00 0.00 63 1016.0
20260503213609 55 180 0.0 0.0 0.00 0.00 0.00 61 1015.8
20260503212605 57 180 0.0 0.0 0.00 0.00 0.00 56 1015.8
20260503211602 58 180 0.0 2.0 0.00 0.00 0.00 52 1015.7
20260503210559 55 180 0.0 0.0 0.00 0.00 0.00 58 1015.6
20260503205555 55 180 0.0 2.0 0.00 0.00 0.00 58 1015.7
20260503204552 55 180 0.0 2.0 0.00 0.00 0.00 58 1015.5
20260503203549 55 180 0.0 0.0 0.00 0.00 0.00 58 1015.7
20260503202545 56 180 0.0 2.0 0.00 0.00 0.00 57 1015.7
20260503201542 56 214 1.0 2.0 0.00 0.00 0.00 57 1015.7